Probability
45 35 35 29 16 0 0 0 0 0 3 3 3 0 0 3 0 6 13 3 10 16 16 19 29 23 23 26 23 26 23 19 23 26 23 23 23 23 23 29 35 39 29 35 35 35 35 39 35
39 42 26 13 3 6 0 0 0 0 0 0 0 0 0 3 3 6 6 6 13 13 13 10 29 26 23 26 26 19 19 19 26 23 19 16 19 19 26 32 32 35 35 35 32 35 32 35 35
29 26 16 3 0 0 0 0 0 0 3 3 0 0 3 3 3 6 10 10 13 13 13 13 23 26 23 16 19 19 19 19 16 16 13 16 23 19 16 23 29 32 32 35 35 32 32 29 29
32 13 0 0 0 0 0 0 0 0 0 0 0 0 3 0 3 3 6 6 13 13 10 10 23 23 13 23 19 16 16 16 19 19 19 16 16 19 19 23 23 23 29 32 32 26 19 19 23
19 3 0 0 0 0 0 0 0 0 0 0 0 0 3 6 6 3 0 6 6 10 6 3 19 19 19 19 23 23 19 13 19 16 19 19 16 16 19 26 26 23 29 29 29 23 23 19 23
6 3 0 0 0 0 0 0 0 0 0 0 0 0 3 6 6 0 0 3 3 0 3 6 13 16 16 16 19 23 16 13 16 16 19 19 19 13 16 19 26 19 26 23 29 19 16 23 23
6 0 0 0 0 0 0 0 0 0 0 0 0 0 0 3 3 0 0 0 0 0 3 3 3 6 13 10 13 10 13 6 10 13 16 16 19 13 10 13 16 19 19 19 16 16 16 19 26
6 0 0 0 0 0 0 0 0 0 0 0 0 0 3 3 3 0 0 0 0 0 3 3 3 3 6 6 3 3 6 6 6 10 13 10 13 10 10 13 13 16 13 13 13 13 16 23 19
3 0 0 0 0 0 0 0 0 0 0 0 0 0 3 10 3 0 0 0 0 0 3 0 3 3 3 3 3 3 3 0 0 0 0 0 0 0 0 0 6 10 13 16 13 10 16 16 13
0 0 0 0 0 0 0 0 0 0 0 0 0 0 3 6 3 0 0 0 0 0 0 0 0 0 0 0 3 3 0 0 0 0 0 0 0 0 0 0 3 6 10 13 10 10 3 10 13
0 0 0 0 0 0 0 0 0 0 0 0 0 3 6 0 0 0 0 0 0 0 0 0 0 0 0 3 3 3 0 0 0 0 0 0 0 0 0 0 0 3 0 6 3 0 3 6 10
0 0 0 0 0 0 0 0 0 0 0 0 0 3 6 3 0 0 0 0 0 0 0 0 0 0 0 0 3 3 3 0 0 0 0 0 0 0 0 0 3 3 6 3 0 3 0 0 0
0 0 0 0 0 0 0 0 0 0 0 0 0 3 10 3 3 3 3 0 0 0 0 0 0 0 0 0 0 3 3 0 0 3 0 0 3 0 0 3 3 3 3 0 0 0 0 0 0
0 0 0 0 0 0 0 0 0 0 0 0 3 3 3 3 3 3 0 0 0 0 0 0 0 0 0 0 0 0 0 0 0 0 0 0 0 0 3 3 3 3 0 0 6 0 0 3 3
0 0 0 0 0 0 0 0 0 0 0 0 3 3 3 3 3 6 6 3 0 0 0 0 0 0 0 0 0 0 0 0 0 0 0 0 0 3 3 3 3 0 3 0 3 0 0 0 0
0 0 0 0 0 0 0 0 0 0 0 3 3 3 3 6 6 6 6 0 0 0 0 0 0 0 0 0 0 0 0 0 0 0 3 3 3 3 3 3 3 0 0 3 3 0 3 0 0
0 0 0 0 0 0 0 0 0 0 0 0 3 3 3 3 6 3 3 0 0 0 0 0 0 0 0 0 0 0 0 0 0 0 3 3 0 0 3 3 3 0 3 3 0 3 3 3 3
0 0 0 0 0 0 0 0 0 0 0 0 0 3 3 3 3 6 6 3 0 0 0 0 0 0 0 0 0 3 0 0 0 0 3 3 3 0 0 0 0 3 6 3 6 6 6 6 3
0 0 0 0 0 0 0 0 0 0 0 0 0 0 3 3 3 3 6 6 0 0 0 0 0 0 0 0 0 0 0 0 0 3 0 3 3 0 3 0 3 10 6 6 3 6 10 6 3
0 0 0 0 0 0 0 0 0 0 0 0 0 0 0 0 3 6 10 6 3 3 3 0 0 0 0 3 3 3 0 0 3 6 6 0 0 3 0 3 3 6 13 10 13 13 3 3 3
0 0 0 0 0 0 0 0 0 0 0 0 0 0 0 0 3 3 10 10 6 3 3 0 0 0 0 3 3 3 3 3 3 3 6 3 3 3 3 3 6 6 3 13 10 10 6 6 0
0 0 0 0 0 0 0 0 0 0 0 0 0 0 0 0 0 0 10 10 6 3 3 0 0 0 0 3 3 3 3 3 3 3 6 3 0 0 0 0 0 3 0 3 0 10 10 6 10
0 0 0 0 0 0 0 0 0 0 0 0 0 0 0 0 0 0 6 6 6 3 3 3 0 0 0 3 3 3 3 3 3 3 3 0 0 0 0 0 0 0 0 0 0 0 0 6 6
0 0 0 0 0 0 0 0 0 0 0 0 0 0 0 3 3 0 3 6 6 3 3 3 0 0 3 3 3 3 3 3 3 3 6 0 0 0 0 0 0 0 0 0 0 0 0 0 3
0 0 0 0 0 0 0 0 0 0 0 0 0 0 0 0 3 3 3 6 6 6 3 3 3 3 3 3 3 3 3 3 3 3 3 0 0 0 0 0 0 0 0 0 0 0 0 0 0
0 0 0 0 0 0 0 0 0 0 0 0 0 0 0 0 3 3 6 6 6 3 3 3 3 6 3 3 3 3 3 3 3 3 3 0 0 0 0 0 0 0 0 0 0 0 0 0 0
0 0 0 0 0 0 0 0 0 0 0 0 0 0 0 0 3 3 6 6 6 3 3 3 3 3 6 3 3 3 3 3 3 3 0 0 0 0 0 0 0 0 0 0 0 0 0 3 0
0 0 0 0 0 0 0 0 0 0 0 0 0 0 0 0 0 3 6 3 6 3 3 3 3 3 6 6 3 3 3 3 0 0 0 0 0 0 0 0 0 0 0 0 0 0 0 0 0
0 0 0 0 0 0 0 0 0 0 0 0 0 0 0 0 0 0 6 3 3 3 3 3 3 3 6 6 3 3 3 0 0 0 0 0 0 0 0 0 0 0 0 0 0 0 0 0 0
0 0 0 0 0 0 0 0 0 0 0 0 0 0 0 0 0 0 3 3 3 3 3 3 0 0 3 6 3 3 0 3 0 0 0 0 0 0 0 0 0 0 0 0 0 0 0 0 0
Height
5890 5890 5891 5892 5893 5892 5891 5892 5891 5891 5891 5890 5890 5890 5890 5890 5890 5892 5889 5887 5887 5887 5886 5885 5885 5885 5884 5884 5883 5883 5882 5881 5881 5880 5880 5879 5878 5878 5878 5878 5878 5877 5877 5877 5877 5877 5878 5878 5878
5889 5890 5891 5891 5891 5891 5891 5890 5890 5890 5890 5889 5889 5889 5889 5888 5888 5888 5887 5886 5886 5886 5885 5885 5884 5884 5883 5883 5882 5882 5881 5881 5880 5880 5879 5878 5878 5878 5877 5877 5877 5877 5877 5877 5877 5877 5877 5877 5877
5888 5889 5890 5890 5890 5890 5890 5890 5889 5889 5889 5888 5888 5888 5888 5887 5887 5886 5886 5885 5885 5885 5884 5884 5883 5883 5882 5882 5882 5881 5880 5880 5879 5879 5878 5878 5877 5877 5876 5876 5876 5876 5876 5876 5876 5876 5876 5876 5876
5888 5889 5889 5889 5889 5889 5889 5888 5888 5888 5888 5887 5887 5886 5886 5886 5885 5885 5884 5884 5884 5883 5883 5883 5882 5882 5882 5881 5881 5880 5879 5879 5878 5878 5877 5877 5876 5876 5875 5875 5875 5875 5875 5875 5875 5875 5875 5875 5875
5886 5887 5888 5887 5887 5887 5887 5887 5887 5886 5886 5886 5885 5885 5884 5884 5883 5883 5883 5883 5882 5882 5882 5881 5881 5881 5881 5880 5879 5879 5878 5878 5877 5877 5876 5875 5875 5874 5874 5874 5874 5873 5873 5873 5873 5874 5874 5874 5874
5886 5886 5887 5886 5886 5886 5886 5885 5885 5885 5885 5884 5884 5883 5883 5883 5882 5882 5881 5881 5881 5881 5880 5880 5880 5880 5879 5879 5878 5878 5877 5877 5876 5875 5875 5874 5874 5873 5873 5872 5872 5872 5872 5872 5872 5872 5873 5873 5873
5885 5884 5884 5884 5884 5884 5884 5884 5884 5883 5883 5883 5882 5882 5881 5881 5880 5880 5880 5879 5879 5879 5879 5879 5878 5878 5878 5877 5877 5876 5875 5875 5875 5874 5874 5873 5873 5872 5872 5871 5871 5871 5871 5871 5871 5871 5871 5871 5872
5882 5883 5882 5883 5883 5883 5882 5882 5882 5881 5881 5881 5881 5880 5880 5880 5879 5878 5878 5877 5877 5877 5877 5877 5877 5876 5876 5876 5876 5875 5874 5874 5873 5873 5872 5872 5871 5871 5870 5870 5870 5870 5870 5869 5870 5870 5870 5870 5870
5880 5882 5881 5881 5881 5881 5880 5880 5880 5879 5879 5879 5879 5878 5878 5877 5877 5876 5876 5876 5875 5875 5875 5875 5875 5875 5874 5874 5874 5873 5873 5872 5872 5872 5871 5870 5870 5869 5869 5869 5868 5868 5868 5868 5868 5868 5869 5869 5869
5879 5880 5880 5880 5879 5879 5878 5878 5878 5878 5877 5877 5877 5876 5875 5875 5875 5874 5874 5874 5873 5873 5873 5873 5873 5873 5872 5872 5872 5871 5871 5870 5870 5870 5870 5869 5868 5868 5868 5867 5867 5867 5867 5867 5867 5867 5867 5867 5867
5878 5878 5878 5878 5878 5877 5877 5876 5876 5876 5876 5875 5875 5874 5873 5873 5873 5872 5872 5872 5871 5871 5871 5871 5871 5870 5870 5870 5870 5869 5869 5869 5869 5869 5868 5868 5867 5867 5866 5866 5866 5866 5865 5865 5865 5865 5865 5865 5865
5877 5877 5877 5877 5876 5876 5875 5875 5875 5874 5874 5873 5873 5872 5871 5871 5870 5870 5870 5870 5869 5869 5869 5869 5869 5868 5868 5868 5868 5868 5867 5867 5867 5867 5867 5866 5866 5865 5865 5865 5864 5864 5864 5864 5864 5864 5863 5864 5864
5876 5875 5875 5875 5875 5874 5874 5874 5873 5873 5872 5871 5871 5870 5869 5869 5868 5868 5868 5867 5867 5867 5867 5866 5867 5867 5866 5866 5867 5866 5866 5866 5865 5865 5865 5865 5864 5864 5863 5863 5863 5863 5862 5862 5862 5862 5862 5862 5863
5875 5874 5874 5874 5873 5873 5873 5872 5872 5871 5870 5870 5869 5868 5867 5867 5867 5866 5866 5865 5865 5865 5864 5864 5864 5864 5864 5864 5865 5865 5864 5864 5864 5864 5863 5863 5863 5862 5862 5861 5861 5861 5861 5861 5861 5861 5861 5861 5861
5874 5874 5874 5873 5872 5872 5872 5872 5870 5870 5869 5868 5867 5866 5865 5865 5865 5864 5864 5864 5863 5863 5862 5862 5862 5862 5862 5862 5863 5863 5862 5862 5862 5862 5862 5861 5861 5861 5860 5860 5860 5859 5859 5859 5859 5859 5859 5860 5860
5873 5873 5873 5872 5871 5871 5873 5871 5869 5868 5867 5867 5866 5865 5864 5863 5863 5863 5862 5862 5861 5861 5861 5860 5860 5860 5860 5860 5860 5861 5860 5860 5860 5860 5860 5860 5859 5859 5859 5858 5858 5858 5858 5858 5858 5858 5858 5858 5859
5872 5872 5872 5872 5871 5870 5870 5869 5868 5867 5866 5865 5864 5863 5862 5862 5861 5861 5861 5860 5860 5859 5859 5859 5858 5858 5858 5858 5858 5858 5858 5858 5858 5858 5858 5858 5858 5857 5857 5857 5857 5856 5857 5857 5857 5857 5857 5857 5858
5872 5871 5871 5871 5870 5869 5869 5868 5867 5866 5865 5864 5863 5862 5861 5860 5860 5860 5859 5859 5859 5858 5857 5857 5856 5856 5856 5857 5857 5857 5857 5856 5856 5856 5856 5856 5856 5856 5856 5855 5855 5855 5855 5855 5855 5856 5856 5856 5856
5870 5870 5870 5870 5869 5869 5868 5867 5866 5865 5864 5863 5862 5861 5860 5859 5859 5858 5858 5858 5857 5856 5856 5855 5855 5855 5855 5855 5855 5855 5855 5855 5855 5855 5855 5855 5855 5854 5854 5854 5854 5854 5854 5854 5854 5854 5855 5855 5855
5869 5869 5869 5868 5868 5868 5867 5866 5865 5864 5863 5862 5861 5860 5859 5858 5857 5857 5856 5856 5856 5855 5854 5854 5853 5853 5853 5854 5854 5854 5854 5854 5854 5854 5853 5853 5853 5853 5853 5853 5853 5853 5853 5853 5853 5853 5853 5854 5854
5867 5867 5867 5867 5867 5866 5866 5865 5864 5863 5862 5861 5860 5859 5858 5856 5855 5855 5855 5855 5854 5854 5853 5852 5852 5852 5852 5852 5852 5852 5853 5853 5853 5852 5852 5852 5852 5852 5852 5852 5852 5852 5852 5852 5852 5852 5852 5852 5853
5866 5866 5866 5866 5865 5865 5865 5865 5863 5862 5861 5860 5859 5857 5856 5855 5854 5853 5853 5853 5853 5853 5852 5851 5851 5851 5851 5851 5851 5851 5852 5852 5852 5851 5851 5851 5851 5851 5851 5851 5851 5851 5851 5851 5851 5851 5851 5851 5851
5864 5864 5864 5864 5864 5864 5864 5863 5863 5861 5860 5859 5857 5856 5855 5854 5853 5852 5852 5852 5851 5851 5851 5851 5850 5850 5850 5850 5850 5850 5851 5851 5851 5851 5851 5851 5851 5850 5850 5850 5850 5850 5850 5850 5850 5850 5850 5850 5850
5862 5863 5862 5862 5862 5863 5862 5862 5861 5860 5858 5857 5856 5854 5853 5852 5851 5851 5850 5850 5850 5850 5850 5850 5849 5849 5849 5849 5849 5850 5850 5850 5850 5850 5850 5850 5850 5850 5850 5850 5849 5849 5849 5850 5849 5849 5849 5849 5849
5860 5861 5861 5861 5861 5861 5860 5860 5860 5858 5857 5856 5854 5853 5852 5851 5850 5850 5849 5849 5849 5849 5848 5848 5848 5848 5848 5848 5848 5849 5849 5849 5849 5849 5849 5849 5849 5849 5849 5849 5848 5848 5848 5848 5848 5848 5848 5848 5848
5858 5859 5860 5860 5860 5859 5858 5858 5858 5856 5855 5854 5853 5852 5851 5850 5849 5849 5848 5848 5847 5847 5847 5847 5847 5847 5847 5847 5847 5848 5848 5848 5848 5848 5848 5848 5848 5848 5848 5848 5847 5847 5847 5847 5847 5847 5847 5847 5847
5855 5856 5857 5857 5857 5857 5856 5856 5855 5854 5853 5852 5851 5850 5849 5849 5848 5848 5847 5847 5846 5846 5845 5845 5845 5845 5846 5846 5846 5846 5847 5847 5847 5847 5847 5847 5847 5847 5847 5846 5846 5846 5846 5846 5846 5845 5845 5845 5845
5852 5853 5853 5854 5854 5854 5854 5854 5854 5852 5851 5850 5849 5849 5848 5848 5847 5846 5846 5845 5845 5845 5844 5844 5844 5844 5844 5844 5845 5845 5845 5846 5846 5846 5846 5846 5846 5845 5845 5845 5845 5845 5845 5844 5844 5844 5844 5843 5843
5849 5850 5850 5850 5851 5852 5852 5854 5851 5850 5849 5848 5848 5847 5847 5846 5846 5845 5844 5844 5844 5843 5843 5843 5843 5843 5843 5843 5843 5843 5843 5844 5844 5844 5844 5844 5844 5844 5844 5844 5844 5843 5843 5843 5843 5842 5842 5842 5841
5845 5845 5846 5848 5848 5848 5849 5852 5848 5847 5847 5846 5845 5845 5845 5844 5844 5843 5843 5842 5842 5842 5841 5841 5841 5841 5841 5841 5841 5841 5841 5841 5842 5842 5842 5842 5843 5843 5842 5842 5842 5842 5842 5841 5841 5841 5840 5840 5839
Wind_Speed
1 1 1 1 1 2 2 3 3 3 3 3 3 4 3 2 3 3 2 2 2 2 2 2 2 2 2 2 2 2 2 2 2 2 2 2 2 2 2 2 2 2 2 3 3 4 4 6 6
2 2 2 2 2 3 3 3 4 4 4 4 4 4 4 3 3 3 3 3 2 2 2 2 2 2 3 3 3 3 3 3 2 2 3 3 2 3 3 3 3 3 2 2 3 4 5 6 7
4 4 4 4 4 4 4 4 4 4 4 4 4 5 5 4 4 4 4 3 3 3 3 3 3 3 3 4 3 3 4 3 3 3 3 4 3 3 3 4 4 3 3 3 4 4 5 6 7
4 4 5 5 5 5 5 5 5 5 5 5 5 5 5 5 5 5 5 5 5 5 4 4 3 3 4 4 4 4 4 4 4 4 5 5 5 4 4 4 4 4 4 4 4 5 5 6 7
5 5 5 6 6 6 6 6 6 5 5 5 5 6 6 6 5 5 6 6 6 6 5 5 5 4 4 5 5 5 5 5 5 5 5 5 5 5 5 4 4 5 5 5 5 5 5 5 7
5 5 6 6 6 7 7 7 7 6 6 6 6 6 7 7 7 7 6 6 6 6 7 6 6 5 6 5 5 5 5 5 5 6 5 5 5 5 5 5 5 5 6 5 5 5 6 6 7
6 6 6 6 6 7 7 7 7 7 7 7 7 7 8 8 7 7 7 7 8 7 7 8 8 7 7 6 5 5 6 6 6 6 5 5 5 5 5 5 6 6 5 5 5 5 7 7 7
5 6 6 6 6 7 7 7 8 8 8 8 8 9 9 9 8 8 8 8 8 8 8 9 9 8 7 7 6 6 6 6 6 6 5 5 6 6 6 6 6 6 5 5 5 5 6 7 7
5 5 6 6 6 7 7 7 7 8 8 9 9 10 11 10 10 10 9 8 9 9 9 9 9 8 8 7 7 7 6 7 7 6 6 6 6 6 6 6 6 6 6 6 5 6 6 7 7
4 5 5 5 6 7 7 8 8 7 8 8 9 10 10 10 10 10 10 10 10 10 9 9 9 9 8 7 7 8 7 6 6 6 6 6 6 6 6 6 6 6 6 7 7 7 7 7 7
4 4 5 5 5 6 7 6 7 7 7 8 9 9 8 9 10 10 10 9 10 10 10 9 9 9 9 8 8 7 7 6 6 6 5 5 6 6 6 6 6 6 6 6 7 7 6 7 7
3 3 4 4 5 5 5 5 6 6 7 8 9 9 8 8 9 9 9 9 9 9 10 9 9 8 8 8 8 7 6 6 6 6 6 6 6 6 6 6 6 6 6 6 7 7 7 6 6
3 3 3 4 4 5 5 5 6 6 7 8 8 8 9 8 8 8 8 9 9 9 9 10 9 8 8 9 8 8 7 8 7 7 6 6 6 6 6 5 6 6 6 7 7 6 6 6 6
3 3 3 4 5 4 5 5 6 7 7 7 8 8 8 9 9 9 9 8 9 9 9 10 9 9 9 8 8 9 8 8 8 7 7 7 6 6 6 6 5 6 6 6 6 5 5 5 6
3 3 3 5 5 5 4 5 5 6 7 7 7 8 8 8 8 9 9 9 9 9 9 9 8 9 9 8 8 9 9 8 8 8 8 7 7 7 6 6 5 6 5 5 5 5 5 6 6
3 3 4 5 5 4 5 5 6 6 7 7 7 7 8 8 9 9 9 9 9 8 8 8 8 8 8 8 9 9 8 8 8 8 7 6 7 7 6 6 6 6 6 6 5 5 5 6 6
3 4 4 4 4 5 5 5 6 6 6 6 7 7 7 7 7 7 8 8 8 9 9 7 8 7 8 8 8 8 8 8 8 8 7 6 6 6 6 6 7 6 6 6 6 5 6 5 6
4 4 4 4 5 5 6 6 6 7 7 6 7 7 6 6 6 6 7 7 7 8 9 8 9 8 7 7 7 7 7 8 7 7 7 6 6 6 6 6 6 6 6 6 6 6 6 6 6
4 4 5 5 5 6 6 7 7 7 6 6 7 7 6 6 6 6 7 7 7 7 8 8 8 7 7 7 7 7 7 6 6 6 6 6 6 6 5 5 5 5 5 6 6 6 6 6 6
5 5 5 5 5 6 6 7 7 7 7 7 7 7 7 6 6 6 6 6 6 6 6 6 6 6 6 7 7 6 6 6 6 6 6 6 5 5 5 4 4 5 4 5 5 6 6 6 6
4 5 6 6 7 7 7 7 6 7 6 7 7 7 7 7 7 7 6 6 5 5 5 5 4 5 5 6 6 6 5 5 5 4 4 4 4 4 4 4 4 3 3 4 4 5 5 5 6
5 6 6 6 6 6 6 6 6 6 6 7 7 8 8 7 7 6 6 6 5 5 5 5 5 4 4 5 5 5 5 4 4 4 4 3 3 3 3 3 3 3 4 4 4 4 4 4 5
6 6 5 6 6 6 6 6 6 6 7 7 8 8 8 7 6 6 6 6 6 6 6 6 5 5 5 5 5 5 5 4 4 3 3 3 3 3 3 3 3 3 3 3 4 5 5 4 5
7 6 6 6 6 6 6 6 6 7 7 8 8 8 7 6 6 6 6 6 6 6 6 6 5 5 5 5 5 5 5 4 4 4 4 4 3 3 3 3 3 3 3 4 4 4 5 5 5
8 7 7 7 7 7 7 7 7 8 8 8 7 7 6 6 6 6 6 6 6 6 6 5 5 5 5 5 5 5 4 4 4 4 4 4 4 4 4 4 3 4 4 4 5 5 5 5 5
9 8 8 7 7 8 7 7 8 8 8 8 7 6 6 6 6 5 6 5 5 6 6 6 6 5 5 5 5 5 5 5 5 4 4 4 4 4 4 4 4 4 4 5 5 6 6 6 6
10 9 9 9 9 8 8 8 8 8 8 8 7 6 5 6 6 6 6 5 6 5 5 5 6 6 5 5 6 6 6 5 5 5 5 4 5 4 4 4 4 4 4 5 6 6 6 6 7
11 11 10 10 10 9 9 8 8 8 8 8 7 6 6 6 6 6 5 5 5 5 5 4 5 5 5 5 6 6 6 6 6 6 5 5 5 5 5 5 5 5 5 6 6 6 7 7 7
12 12 11 12 11 10 10 9 8 8 8 8 8 7 7 6 6 6 6 5 4 5 5 5 5 6 6 6 6 7 7 7 7 6 5 5 5 5 5 5 5 6 6 6 7 7 7 6 7
13 13 13 13 12 12 11 10 10 9 9 9 8 8 7 7 7 7 6 5 5 5 5 5 6 6 6 7 7 7 7 7 7 6 5 5 5 5 5 5 5 5 5 6 6 6 6 7 7
Wind_Direction
204 193 205 245 232 246 249 245 244 233 247 257 256 256 265 268 273 279 281 289 299 299 309 308 291 289 301 303 315 323 309 296 306 322 307 302 300 294 286 276 284 287 267 246 229 223 208 210 213
251 256 254 262 265 271 270 271 250 254 261 267 267 268 276 271 270 275 271 269 278 288 296 297 285 277 276 279 291 291 285 285 295 310 307 306 302 292 280 265 268 275 281 260 240 230 221 225 224
262 267 265 266 268 272 275 276 272 272 264 267 271 273 273 276 273 274 268 268 277 278 275 271 273 274 272 265 275 279 283 283 283 288 294 296 304 295 281 267 263 267 264 256 244 236 234 234 229
263 268 270 270 268 268 270 275 275 282 276 268 274 276 271 277 276 267 268 271 276 273 263 261 269 275 272 274 274 280 288 288 283 284 288 289 298 295 274 268 266 264 259 254 245 241 240 233 229
262 263 267 269 266 266 267 269 270 275 276 276 277 272 273 281 283 282 273 273 274 269 262 259 269 276 277 275 274 277 285 287 286 285 285 290 295 294 278 269 269 266 259 254 251 244 244 235 232
261 264 269 270 266 265 264 266 265 267 271 275 278 277 276 280 283 284 276 272 269 263 260 256 264 271 276 279 283 282 280 280 282 282 283 289 289 288 287 278 272 269 263 258 251 246 243 244 239
261 264 268 271 271 268 265 266 265 268 267 268 276 279 279 280 281 282 277 266 263 261 259 258 261 266 273 276 282 285 283 278 278 281 285 288 285 283 283 282 275 270 259 253 250 249 244 244 241
261 264 267 271 275 276 273 270 266 267 267 271 276 277 280 278 277 274 272 268 264 263 262 262 260 260 267 271 273 275 277 277 276 275 281 286 284 276 275 278 274 266 258 255 249 247 245 248 248
262 264 269 272 272 275 274 274 272 270 272 272 275 276 278 275 273 271 274 271 264 265 267 264 258 255 260 267 268 269 270 273 272 276 277 282 283 277 274 272 269 265 262 256 254 249 247 249 251
271 269 272 275 278 277 279 278 278 276 278 277 278 276 276 275 272 270 270 270 271 268 268 268 258 254 256 259 262 267 268 268 268 275 280 282 286 283 277 270 264 258 257 258 258 254 252 244 244
282 274 277 281 288 286 287 281 277 278 279 281 283 277 276 276 271 270 272 273 273 272 269 264 259 257 257 255 258 262 265 266 272 280 284 281 282 280 275 268 265 259 254 254 255 257 252 243 240
288 278 285 291 299 296 295 289 286 283 282 284 285 279 276 280 277 272 274 275 273 272 271 266 259 257 255 251 254 261 265 270 278 282 285 283 280 276 271 264 262 261 256 252 253 255 254 244 237
291 292 299 302 302 301 300 295 294 294 293 290 284 283 282 279 277 276 272 272 272 274 270 266 262 254 250 248 253 260 263 266 275 278 278 280 280 275 272 264 259 259 255 249 249 255 252 238 236
304 304 308 310 308 308 307 303 299 300 303 298 297 293 286 278 280 279 274 270 275 276 274 268 265 258 252 251 255 260 261 264 266 267 269 274 279 279 274 266 260 255 248 252 249 250 246 238 235
301 307 309 313 316 321 321 311 306 309 311 308 309 304 294 288 283 280 274 272 276 277 278 271 266 261 255 257 259 261 261 264 263 264 266 269 272 270 269 260 256 251 250 251 245 242 242 237 231
304 308 313 318 321 328 323 318 316 314 316 314 314 312 301 297 287 282 279 277 274 280 283 270 266 260 256 257 260 262 262 265 266 263 264 268 268 266 267 264 259 254 250 251 249 249 243 235 232
282 296 313 319 322 329 330 329 328 326 324 319 318 315 302 299 292 286 286 285 281 286 284 271 266 267 262 261 264 264 264 266 269 263 258 264 267 268 269 268 267 260 259 258 257 256 243 235 237
264 276 295 313 322 326 329 328 330 333 330 325 324 321 308 300 291 287 287 285 285 287 282 273 268 268 265 261 260 263 265 268 266 263 257 258 266 269 272 272 271 264 260 256 254 248 245 245 244
253 271 294 303 316 319 322 324 328 331 328 323 322 319 311 305 290 288 288 284 286 286 284 279 272 269 267 259 256 261 265 266 265 270 273 264 271 273 269 268 267 265 262 256 249 239 242 248 250
261 271 291 302 309 314 318 318 319 320 318 316 316 312 312 310 295 290 294 287 287 290 296 287 272 264 258 255 257 262 270 265 266 271 278 265 267 272 263 261 264 262 258 249 241 236 242 251 252
266 274 284 298 309 313 316 318 316 318 320 317 315 311 309 309 304 293 287 289 285 291 298 292 280 264 258 253 255 255 259 264 265 265 272 273 266 263 256 260 254 252 246 241 239 239 241 250 252
270 279 284 292 302 310 313 314 316 313 314 312 314 317 318 316 309 298 290 285 282 286 295 299 279 264 263 260 256 251 258 268 267 269 278 283 267 251 255 260 251 244 241 238 242 253 248 251 256
273 276 279 283 291 299 305 307 313 308 307 310 312 315 316 316 312 304 294 291 287 280 282 289 287 269 265 256 252 261 261 257 257 267 278 281 279 255 256 267 260 251 244 240 250 253 257 255 253
267 271 276 281 289 293 300 301 306 305 307 308 310 309 308 308 307 308 299 291 289 284 280 281 278 270 260 256 258 260 259 255 252 256 269 278 275 262 261 266 270 262 252 250 256 259 262 257 256
266 271 276 282 286 288 293 298 303 304 304 308 308 305 302 300 303 306 305 299 294 286 279 274 273 267 261 255 254 258 254 254 251 252 267 277 279 269 265 265 270 263 258 255 259 262 264 261 259
264 268 270 272 279 286 290 297 303 303 304 307 309 309 305 299 301 306 309 305 303 292 281 275 274 272 260 255 251 247 252 253 253 255 260 269 274 273 266 268 270 269 264 265 263 266 265 267 266
260 264 267 270 276 283 289 295 300 303 306 309 307 305 306 305 304 306 308 305 308 302 293 283 274 270 263 265 257 251 252 256 254 255 258 264 270 273 277 277 266 264 267 274 274 273 271 274 274
256 259 263 268 275 282 288 291 294 297 302 304 300 299 299 303 305 306 307 302 302 301 295 283 276 275 269 268 262 260 257 261 257 254 255 259 260 264 272 271 268 265 272 281 282 279 278 278 278
257 257 261 266 271 275 280 281 285 289 295 297 292 291 294 297 301 298 302 303 303 303 298 286 278 272 268 266 265 263 262 259 258 259 255 253 254 260 266 271 277 279 280 282 283 281 277 278 281
253 256 259 263 267 270 273 277 280 280 285 289 287 285 289 293 299 300 296 296 300 300 294 289 280 272 269 266 263 263 261 259 256 255 253 257 252 256 266 276 279 281 285 287 290 286 280 279 282